Location: ???????
(55.3754°N, 39.3545°E)
Time: 01:56:18
(UTC+00:00)

Cosmos 1980 Rocket - Pass Details

Date: 14 April 2026
Orbit: 826 x 850 km, 71.0° (Epoch: 20 May)

Event Time Altitude Azimuth Distance (km) Brightness Sun altitude
Rises 20:58:46 0° 322° (NW) 3,418 6.3 -24.8°
Reaches altitude 10° 21:01:33 10° 333° (NNW) 2,483 5.5 -24.8°
Maximum altitude 21:06:31 30° 33° (NNE) 1,503 3.9 -24.9°
Drops below altitude 10° 21:11:28 10° 94° (E) 2,481 4.6 -24.9°
Enters shadow 21:12:47 - 100° (E) 2,915 4.9 -24.9°
